Overview Statistics Trail Chart Weather Telemetry Raw packets
 

This is the latest recevied weather packets stored in our database for station/object AA7VG. If no packets are shown the sender has not sent any weather packets the latest 10 day(s).

<< 3 4 5 6 7 8 9 >>
Time Temp. Humidity Pressure Rain* Wind** Luminosity Snow
1788589005 12.22° C 60% 1013.4 hPa 0 mm - - -
1788588704 12.22° C 60% 1013.3 hPa 0 mm - - -
1788588399 12.78° C 58% 1013 hPa 0 mm - - -
1788588096 13.33° C 56% 1013 hPa 0 mm - - -
1788587794 13.33° C 55% 1013 hPa 0 mm - - -
1788587490 13.89° C 53% 1013 hPa 0 mm - - -
1788587186 13.89° C 52% 1012.9 hPa 0 mm - - -
1788586881 13.89° C 51% 1012.9 hPa 0 mm - - -
1788586581 13.89° C 51% 1012.8 hPa 0 mm - - -
1788586276 13.89° C 51% 1013.3 hPa 0 mm - - -
1788585975 14.44° C 51% 1012.9 hPa 0 mm - - -
1788585670 14.44° C 51% 1012.8 hPa 0 mm - - -
1788585365 13.89° C 52% 1012.9 hPa 0 mm - - -
1788585062 14.44° C 53% 1013 hPa 0 mm - - -
1788584758 14.44° C 52% 1013.3 hPa 0 mm - - -
1788584455 14.44° C 52% 1012.9 hPa 0 mm - - -
1788584154 15° C 50% 1013 hPa 0 mm - - -
1788583850 15° C 51% 1013.1 hPa 0 mm - - -
1788583550 15° C 50% 1013.1 hPa 0 mm - - -
1788583250 15° C 51% 1013.1 hPa 0 mm - - -
1788582949 15° C 51% 1013.4 hPa 0 mm - - -
1788582645 15.56° C 51% 1013.1 hPa 0 mm - - -
1788582343 15.56° C 50% 1013 hPa 0 mm - - -
1788582039 15.56° C 49% 1013.1 hPa 0 mm - - -
1788581734 16.11° C 48% 1013.4 hPa 0 mm - - -

* Rain latest hour (hover to see other rain measurements)
** Current wind speed in m/s (hover to see current wind gust speed)